Wellsville, NY

6:24 AM EST on January 22, 2018 (GMT -0500)
Wellsville Municipal-Tarantine

Weather History for KELZ - September, 2012

Change the Weather History Date:

Wednesday, September 12, 2012

  Actual Average (KDSV) Record (KDSV)
Temperature  
Mean Temperature 64 °F -  
Max Temperature 77 °F 74 °F 93 °F (1952)
Min Temperature 51 °F 50 °F 35 °F (1967)
Degree Days  
Heating Degree Days 1    
Growing Degree Days 14 (Base 50)    
Moisture  
Dew Point 48 °F    
Average Humidity 60    
Maximum Humidity 83    
Minimum Humidity 32    
Precipitation  
Precipitation 0.00 in - - ()
Sea Level Pressure  
Sea Level Pressure 30.33 in    
Wind  
Wind Speed 2 mph (South)    
Max Wind Speed 9 mph    
Max Gust Speed -    
Visibility 10 miles    
Events      
Averages and records for this station are not official NWS values.
T = Trace of Precipitation, MM = Missing Value Source: NWS Daily Summary

Daily Weather History Graph

Daily Weather History Graph

Search for Another Location

Airport or City:

Trip Planner

Search our weather history database for the weather conditions in past years. The results will help you decide how hot, cold, wet, or windy it might be!

Date:

Astronomy

Sep. 12, 2012 Rise Set
Actual Time 6:49 AM EDT 7:25 PM EDT
Civil Twilight 6:21 AM EDT 7:54 PM EDT
Nautical Twilight 5:47 AM EDT 8:27 PM EDT
Astronomical Twilight 5:13 AM EDT 9:01 PM EDT
Moon 3:01 AM EDT (9/12) 5:14 PM EDT (9/12)
Length of Visible Light 13h 32m
Length of Day
12h 36m
Waning Crescent, 14% of the Moon is Illuminated
Sep 12
Waning Crescent
Sep 15
New
Sep 22
First Quarter
Sep 29
Full
Oct 8
Last Quarter

Hourly Weather History & Observations

Time (EDT) Temp. Dew Point Humidity Pressure Visibility Wind Dir Wind Speed Gust Speed Precip Events Conditions
12:56 AM 54.0 °F 46.9 °F 77% 30.30 in 10.0 mi Calm Calm - N/A   Clear
1:56 AM 52.0 °F 46.9 °F 83% 30.30 in 10.0 mi Calm Calm - N/A   Clear
2:56 AM 51.1 °F 46.0 °F 83% 30.31 in 10.0 mi Calm Calm - N/A   Clear
3:56 AM 52.0 °F 46.0 °F 80% 30.31 in 10.0 mi Calm Calm - N/A   Clear
4:56 AM 52.0 °F 45.0 °F 77% 30.32 in 10.0 mi Calm Calm - N/A   Clear
5:56 AM 52.0 °F 44.1 °F 74% 30.33 in 10.0 mi Calm Calm - N/A   Clear
6:56 AM 53.1 °F 43.0 °F 69% 30.35 in 10.0 mi Calm Calm - N/A   Clear
7:56 AM 51.1 °F 46.0 °F 83% 30.38 in 10.0 mi Calm Calm - N/A   Clear
8:56 AM 55.0 °F 48.9 °F 80% 30.38 in 10.0 mi Calm Calm - N/A   Clear
9:56 AM 61.0 °F 52.0 °F 72% 30.38 in 10.0 mi ESE 3.5 mph - N/A   Clear
10:56 AM 68.0 °F 48.0 °F 49% 30.37 in 10.0 mi SSW 4.6 mph - N/A   Clear
11:56 AM 70.0 °F 48.9 °F 47% 30.36 in 10.0 mi South 4.6 mph - N/A   Clear
12:56 PM 73.0 °F 50.0 °F 44% 30.35 in 10.0 mi Variable 5.8 mph - N/A   Clear
1:56 PM 75.0 °F 48.9 °F 40% 30.33 in 10.0 mi South 3.5 mph - N/A   Clear
2:56 PM 75.9 °F 50.0 °F 40% 30.31 in 10.0 mi South 9.2 mph - N/A   Clear
3:56 PM 77.0 °F 48.0 °F 36% 30.30 in 10.0 mi SSW 5.8 mph - N/A   Clear
4:56 PM 75.9 °F 44.1 °F 32% 30.30 in 10.0 mi SW 6.9 mph - N/A   Clear
5:56 PM 73.9 °F 46.0 °F 37% 30.31 in 10.0 mi SSW 8.1 mph - N/A   Clear
6:56 PM 71.1 °F 48.9 °F 45% 30.31 in 10.0 mi South 5.8 mph - N/A   Clear
8:56 PM 66.9 °F 51.1 °F 57% 30.34 in 10.0 mi South 5.8 mph - N/A   Clear
9:56 PM 66.0 °F 51.1 °F 59% 30.34 in 10.0 mi South 5.8 mph - N/A   Clear
10:56 PM 64.0 °F 51.1 °F 63% 30.34 in 10.0 mi South 4.6 mph - N/A   Clear